Regional Weather Roundup
Issued by NWS Charleston, WV

Home | Current Version | Previous Version | Text Only | Print | Product List | Glossary Off
Versions: 1 2 3 4 5 6 7 8 9 10 11 12 13 14 15 16 17 18 19 20 21 22 23 24 25 26 27 28

000
ASUS41 KRLX 281810
RWRRLX
West Virginia Regional Weather Roundup
National Weather Service Charleston WV
200 PM EDT THU JUL 28 2016

Note: "fair" indicates few or no clouds below 12,000 feet with no
significant weather and/or obstructions to visibility.

WVZ003-281900-
Northern Panhandle of West Virginia

CITY           SKY/WX    TMP DP  RH WIND       PRES   REMARKS
WHEELING       RAIN      72  68  87 CALM      29.95F FOG
$$

WVZ009-281900-
Northwest West Virginia

CITY           SKY/WX    TMP DP  RH WIND       PRES   REMARKS
PARKERSBURG    LGT RAIN  73  70  90 E3        29.95F FOG
$$

WVZ006-281900-
Western West Virginia

CITY           SKY/WX    TMP DP  RH WIND       PRES   REMARKS
HUNTINGTON     LGT RAIN  72  70  93 NE3       29.89F
$$

WVZ015-281900-
West Central West Virginia

CITY           SKY/WX    TMP DP  RH WIND       PRES   REMARKS
CHARLESTON     PTSUNNY   80  72  76 NE5       29.90F
$$

WVZ022-031-281900-
North Central West Virginia

CITY           SKY/WX    TMP DP  RH WIND       PRES   REMARKS
CLARKSBURG     RAIN      72  70  93 N6        29.94F FOG
MORGANTOWN     LGT RAIN  73  69  87 CALM      29.96S
$$

WVZ025-035-042-045-281900-
Southern West Virginia

CITY           SKY/WX    TMP DP  RH WIND       PRES   REMARKS
BECKLEY        CLOUDY    79  68  69 SW7       30.00F
LOGAN            N/A     82  73  74 VRB6G13   29.92F
BLUEFIELD      PTSUNNY   79  67  66 W8        30.03F
LEWISBURG      PTSUNNY   80  65  59 SW7       30.00F
$$

WVZ047-281900-
Northern Mountains of West Virginia

CITY           SKY/WX    TMP DP  RH WIND       PRES   REMARKS
ELKINS         PTSUNNY   82  69  64 W6        29.97F
$$

WVZ052-281900-
Eastern Panhandle of West Virginia

CITY           SKY/WX    TMP DP  RH WIND       PRES   REMARKS
MARTINSBURG    LGT RAIN  72  68  87 N9        29.91R
PETERSBURG     CLOUDY    75  71  89 NE12G22   29.93R
$$




USA.gov is the U.S. government's official web portal to all federal, state and local government web resources and services.